Weather History for Stanley, ND

Change the Weather History Date:

Friday, June 28, 2013

  Actual Average (KMOT) Record (KMOT)
Temperature  
Mean Temperature 67 °F 67 °F  
Max Temperature 77 °F 78 °F 103 °F (1931)
Min Temperature 57 °F 56 °F 34 °F (1923)
Cooling Degree Days 2 4  
Month to date cooling degree days 65  
Year to date cooling degree days 81  
Since 1 June cooling degree days 65  
Growing Degree Days 17 (Base 50)    
Moisture  
Dew Point 56 °F    
Average Humidity 70    
Maximum Humidity 100    
Minimum Humidity 36    
Precipitation  
Precipitation 0.00 in 0.11 in 2.67 in (2014)
Month to date precipitation 3.35  
Year to date precipitation 8.74  
Sea Level Pressure  
Sea Level Pressure 30.13 in    
Wind  
Wind Speed 9 mph (NW)    
Max Wind Speed 20 mph    
Max Gust Speed 26 mph    
Visibility 10 miles    
Events      
T = Trace of Precipitation, MM = Missing Value Source: NWS Daily Summary

Daily Weather History Graph

Daily Weather History Graph

Search for Another Location

Airport:

Trip Planner

Search our weather history database for the weather conditions in past years. The results will help you decide how hot, cold, wet, or windy it might be!

Date:

Astronomy

Jun. 28, 2013 Rise Set
Actual Time 5:51 AM CDT 9:54 PM CDT
Civil Twilight 5:09 AM CDT 10:35 PM CDT
Nautical Twilight 4:11 AM CDT 11:34 PM CDT
Astronomical Twilight 2:28 AM CDT 1:15 AM CDT
Moon 12:24 AM CDT (6/28) 12:32 PM CDT (6/28)
Length of Visible Light 17h 26m
Length of Day
16h 03m
Waning Gibbous, 66% of the Moon is Illuminated
Jun 28
Waning Gibbous
Jun 29
Last Quarter
Jul 8
New
Jul 15
First Quarter
Jul 22
Full

Hourly Weather History & Observations

Time (CDT) Temp. Dew Point Humidity Pressure Visibility Wind Dir Wind Speed Gust Speed Precip Events Conditions
12:15 AM 60.8 °F 60.8 °F 100% 30.09 in 10.0 mi WNW 5.8 mph - N/A   Clear
12:35 AM 60.8 °F 60.8 °F 100% 30.10 in 10.0 mi WNW 6.9 mph - N/A   Clear
12:55 AM 59.0 °F 59.0 °F 100% 30.10 in 10.0 mi WNW 6.9 mph - N/A   Clear
1:35 AM 59.0 °F 59.0 °F 100% 30.10 in 10.0 mi WNW 5.8 mph - N/A   Clear
1:55 AM 59.0 °F 59.0 °F 100% 30.10 in 10.0 mi WNW 6.9 mph - N/A   Clear
2:15 AM 60.8 °F 59.0 °F 94% 30.10 in 10.0 mi NNW 6.9 mph - N/A   Clear
2:35 AM 62.6 °F 59.0 °F 88% 30.10 in 10.0 mi NNW 8.1 mph - N/A   Clear
2:55 AM 60.8 °F 59.0 °F 94% 30.10 in 10.0 mi NNW 8.1 mph - N/A   Clear
3:15 AM 60.8 °F 59.0 °F 94% 30.10 in 10.0 mi NNW 6.9 mph - N/A   Clear
3:35 AM 59.0 °F 59.0 °F 100% 30.11 in 10.0 mi NNW 8.1 mph - N/A   Clear
3:55 AM 59.0 °F 59.0 °F 100% 30.11 in 10.0 mi NW 6.9 mph - N/A   Clear
4:15 AM 57.2 °F 57.2 °F 100% 30.11 in 10.0 mi WNW 6.9 mph - N/A   Clear
4:35 AM 59.0 °F 59.0 °F 100% 30.12 in 10.0 mi NW 6.9 mph - N/A   Clear
4:55 AM 57.2 °F 57.2 °F 100% 30.11 in 10.0 mi WNW 4.6 mph - N/A   Clear
5:15 AM 57.2 °F 57.2 °F 100% 30.12 in 10.0 mi WNW 5.8 mph - N/A   Clear
5:35 AM 57.2 °F 57.2 °F 100% 30.12 in 10.0 mi WNW 5.8 mph - N/A   Clear
5:55 AM 57.2 °F 57.2 °F 100% 30.13 in 10.0 mi NW 5.8 mph - N/A   Clear
6:15 AM 57.2 °F 57.2 °F 100% 30.13 in 10.0 mi NW 6.9 mph - N/A   Clear
6:35 AM 57.2 °F 57.2 °F 100% 30.13 in 10.0 mi WNW 6.9 mph - N/A   Clear
6:55 AM 57.2 °F 57.2 °F 100% 30.14 in 10.0 mi WNW 5.8 mph - N/A   Clear
8:15 AM 64.4 °F 62.6 °F 94% 30.16 in 10.0 mi WNW 6.9 mph - N/A   Clear
8:35 AM 64.4 °F 62.6 °F 94% 30.16 in 10.0 mi WNW 5.8 mph - N/A   Clear
8:55 AM 66.2 °F 62.6 °F 88% 30.16 in 10.0 mi West 6.9 mph - N/A   Clear
9:15 AM 68.0 °F 62.6 °F 83% 30.15 in 10.0 mi WNW 6.9 mph - N/A   Clear
9:35 AM 69.8 °F 62.6 °F 78% 30.16 in 10.0 mi WNW 8.1 mph - N/A   Clear
9:55 AM 71.6 °F 60.8 °F 69% 30.16 in 10.0 mi NW 5.8 mph - N/A   Clear
10:15 AM 73.4 °F 60.8 °F 65% 30.15 in 10.0 mi WNW 6.9 mph - N/A   Clear
10:35 AM 73.4 °F 59.0 °F 61% 30.15 in 10.0 mi NW 11.5 mph 16.1 mph N/A   Clear
10:55 AM 73.4 °F 59.0 °F 61% 30.16 in 10.0 mi NNW 10.4 mph 16.1 mph N/A   Clear
11:15 AM 75.2 °F 59.0 °F 57% 30.15 in 10.0 mi NW 13.8 mph 17.3 mph N/A   Clear
11:35 AM 75.2 °F 55.4 °F 50% 30.15 in 10.0 mi NW 12.7 mph 20.7 mph N/A   Clear
11:55 AM 75.2 °F 53.6 °F 47% 30.15 in 10.0 mi NNW 13.8 mph 25.3 mph N/A   Scattered Clouds
12:15 PM 75.2 °F 55.4 °F 50% 30.15 in 10.0 mi NW 13.8 mph 20.7 mph N/A   Partly Cloudy
12:35 PM 77.0 °F 53.6 °F 44% 30.15 in 10.0 mi North 16.1 mph 20.7 mph N/A   Partly Cloudy
12:55 PM 77.0 °F 55.4 °F 47% 30.15 in 10.0 mi NNW 15.0 mph 20.7 mph N/A   Scattered Clouds
1:15 PM 75.2 °F 55.4 °F 50% 30.15 in 10.0 mi NNW 11.5 mph 18.4 mph N/A   Mostly Cloudy
1:35 PM 75.2 °F 55.4 °F 50% 30.15 in 10.0 mi NW 15.0 mph 19.6 mph N/A   Scattered Clouds
1:55 PM 77.0 °F 55.4 °F 47% 30.14 in 10.0 mi NNW 16.1 mph 21.9 mph N/A   Partly Cloudy
2:15 PM 77.0 °F 53.6 °F 44% 30.14 in 10.0 mi NNW 18.4 mph 24.2 mph N/A   Clear
2:35 PM 77.0 °F 53.6 °F 44% 30.13 in 10.0 mi NNW 16.1 mph 24.2 mph N/A   Clear
2:55 PM 77.0 °F 55.4 °F 47% 30.13 in 10.0 mi NW 12.7 mph 23.0 mph N/A   Clear
3:15 PM 77.0 °F 55.4 °F 47% 30.14 in 10.0 mi NW 15.0 mph 21.9 mph N/A   Partly Cloudy
3:35 PM 77.0 °F 57.2 °F 50% 30.14 in 10.0 mi NNW 19.6 mph 26.5 mph N/A   Partly Cloudy
3:55 PM 77.0 °F 57.2 °F 50% 30.14 in 10.0 mi North 16.1 mph 21.9 mph N/A   Partly Cloudy
4:15 PM 77.0 °F 55.4 °F 47% 30.13 in 10.0 mi NNW 16.1 mph 24.2 mph N/A   Clear
4:35 PM 77.0 °F 53.6 °F 44% 30.13 in 10.0 mi NNW 18.4 mph 24.2 mph N/A   Partly Cloudy
4:55 PM 77.0 °F 51.8 °F 41% 30.13 in 10.0 mi NNW 17.3 mph 26.5 mph N/A   Clear
5:15 PM 77.0 °F 50.0 °F 39% 30.13 in 10.0 mi NNW 16.1 mph 26.5 mph N/A   Clear
5:35 PM 77.0 °F 48.2 °F 36% 30.13 in 10.0 mi NNW 16.1 mph 23.0 mph N/A   Clear
5:55 PM 77.0 °F 50.0 °F 39% 30.13 in 10.0 mi NNW 11.5 mph 20.7 mph N/A   Clear
6:15 PM 75.2 °F 51.8 °F 44% 30.13 in 10.0 mi NNW 13.8 mph 21.9 mph N/A   Clear
6:35 PM 75.2 °F 50.0 °F 41% 30.13 in 10.0 mi NNW 16.1 mph 20.7 mph N/A   Partly Cloudy
6:55 PM 75.2 °F 48.2 °F 38% 30.14 in 10.0 mi North 18.4 mph 25.3 mph N/A   Clear
7:15 PM 75.2 °F 50.0 °F 41% 30.14 in 10.0 mi NNW 13.8 mph - N/A   Clear
7:35 PM 75.2 °F 50.0 °F 41% 30.14 in 10.0 mi NNW 13.8 mph 21.9 mph N/A   Clear
7:55 PM 75.2 °F 50.0 °F 41% 30.14 in 10.0 mi North 13.8 mph 18.4 mph N/A   Clear
8:15 PM 73.4 °F 50.0 °F 44% 30.14 in 10.0 mi NNW 12.7 mph 18.4 mph N/A   Clear
8:35 PM 73.4 °F 51.8 °F 47% 30.14 in 10.0 mi NNW 10.4 mph - N/A   Clear
8:55 PM 71.6 °F 53.6 °F 53% 30.14 in 10.0 mi NNW 5.8 mph - N/A   Clear
9:15 PM 69.8 °F 55.4 °F 60% 30.14 in 10.0 mi NW 8.1 mph - N/A   Clear
9:35 PM 66.2 °F 55.4 °F 68% 30.14 in 10.0 mi NW 5.8 mph - N/A   Clear
9:55 PM 66.2 °F 55.4 °F 68% 30.14 in 10.0 mi NW 5.8 mph - N/A   Clear
10:15 PM 62.6 °F 59.0 °F 88% 30.14 in 10.0 mi NW 5.8 mph - N/A   Clear
10:35 PM 62.6 °F 57.2 °F 82% 30.14 in 10.0 mi NW 6.9 mph - N/A   Clear
10:55 PM 62.6 °F 57.2 °F 82% 30.14 in 10.0 mi NW 6.9 mph - N/A   Clear
11:15 PM 60.8 °F 57.2 °F 88% 30.13 in 10.0 mi WNW 8.1 mph - N/A   Clear
11:35 PM 60.8 °F 57.2 °F 88% 30.13 in 10.0 mi NW 6.9 mph - N/A   Clear
11:55 PM 59.0 °F 57.2 °F 94% 30.13 in 10.0 mi NW 6.9 mph - N/A   Clear